TimeEST,TemperatureF,Dew PointF,Humidity,Sea Level PressureIn,VisibilityMPH,Wind Direction,Wind SpeedMPH,Gust SpeedMPH,PrecipitationIn,Events,Conditions,WindDirDegrees,DateUTC
12:53 AM,39.0,30.9,73,29.64,10.0,Variable,6.9,-,N/A,,Clear,0,2013-02-20 05:53:00
1:53 AM,37.0,27.0,67,29.65,10.0,West,5.8,-,N/A,,Mostly Cloudy,270,2013-02-20 06:53:00
2:53 AM,37.0,24.1,59,29.66,10.0,WNW,9.2,18.4,N/A,,Overcast,300,2013-02-20 07:53:00
3:48 AM,35.6,26.6,70,29.66,10.0,WNW,10.4,-,N/A,,Overcast,300,2013-02-20 08:48:00
3:53 AM,36.0,27.0,70,29.67,10.0,WNW,6.9,-,N/A,,Overcast,300,2013-02-20 08:53:00
4:22 AM,33.8,24.8,70,29.67,9.0,WNW,9.2,16.1,0.00,Snow,Light Snow,300,2013-02-20 09:22:00
4:53 AM,34.0,24.1,67,29.69,8.0,WNW,10.4,17.3,0.00,Snow,Light Snow,290,2013-02-20 09:53:00
5:53 AM,33.1,26.1,75,29.71,9.0,NW,9.2,-,0.00,Snow,Light Snow,320,2013-02-20 10:53:00
6:14 AM,32.0,21.2,64,29.72,10.0,NW,16.1,23.0,0.00,,Overcast,320,2013-02-20 11:14:00
6:53 AM,30.9,19.0,61,29.74,10.0,NW,8.1,18.4,0.00,,Mostly Cloudy,310,2013-02-20 11:53:00
8:53 AM,32.0,10.9,42,29.78,10.0,NW,18.4,29.9,N/A,,Clear,310,2013-02-20 13:53:00
9:53 AM,32.0,10.9,42,29.77,10.0,NW,13.8,20.7,N/A,,Mostly Cloudy,320,2013-02-20 14:53:00
10:53 AM,32.0,10.9,42,29.78,10.0,WNW,12.7,18.4,N/A,,Overcast,290,2013-02-20 15:53:00
11:53 AM,32.0,10.0,40,29.77,10.0,WNW,13.8,23.0,N/A,,Overcast,290,2013-02-20 16:53:00
12:53 PM,32.0,12.0,44,29.76,10.0,WNW,12.7,18.4,N/A,,Overcast,300,2013-02-20 17:53:00
1:53 PM,30.9,12.0,46,29.76,10.0,WNW,11.5,25.3,N/A,,Overcast,290,2013-02-20 18:53:00
2:53 PM,32.0,9.0,38,29.77,10.0,West,16.1,25.3,N/A,,Overcast,280,2013-02-20 19:53:00
3:53 PM,30.9,10.9,43,29.78,10.0,West,16.1,26.5,N/A,,Overcast,270,2013-02-20 20:53:00
4:53 PM,28.9,10.9,47,29.80,10.0,West,9.2,21.9,N/A,,Partly Cloudy,270,2013-02-20 21:53:00
5:53 PM,28.0,10.0,47,29.82,10.0,WNW,11.5,17.3,N/A,,Scattered Clouds,290,2013-02-20 22:53:00
6:53 PM,28.0,6.1,39,29.85,10.0,NW,16.1,20.7,N/A,,Clear,310,2013-02-20 23:53:00
7:53 PM,27.0,7.0,43,29.86,10.0,WNW,11.5,18.4,N/A,,Clear,290,2013-02-21 00:53:00
8:53 PM,26.1,7.0,44,29.87,10.0,WNW,10.4,17.3,N/A,,Clear,290,2013-02-21 01:53:00
9:53 PM,25.0,8.1,49,29.88,10.0,West,6.9,-,N/A,,Clear,280,2013-02-21 02:53:00
10:53 PM,24.1,9.0,53,29.90,10.0,WNW,6.9,-,N/A,,Clear,300,2013-02-21 03:53:00
11:53 PM,24.1,9.0,53,29.91,10.0,Variable,3.5,-,N/A,,Clear,0,2013-02-21 04:53:00